カタログに戻る

STARLINK-6051

運用中通信VLEO
NORAD 56463·PAYLOAD·🇺🇸 United States

打ち上げ May 10, 2023 から Vandenberg Space Force Base

Loading…

次のパス (今後24時間)

TLE

最新Source: CelesTrak SupGP

元期: Sep 15, 2026, 02:11 UTC

1 56463C 23064R   26258.09145833 -.00009462  00000+0 -79316-3 0  2584
2 56463  70.0025  26.9942 0003129 269.2942 113.1459 14.98323836    13

AllMySatでSTARLINK-6051をリアルタイム追跡

Download on the App Store